Home   Weather   Township of Washington   Past weeks
Flag for USA

Past Weather in Township of Washington, Kansas, USA — Yesterday and Last 2 Weeks

Now
60 °F

Sunny.


Feels Like: 60 °F
Forecast: 61 / 34 °F
Wind: No wind

Location: Hebron Municipal Airport

Current Time: Mar 21, 2019 at 7:17:15 pm

Latest Report: Mar 21, 2019 at 6:35 pm


Visibility: 10 mi

Pressure: 30.15 "Hg

Humidity: 29%

Dew Point: 28 °F

Location of Township of WashingtonLocation

Past Weather in Township of Washington — Graph

°F

Township of Washington Temperature Yesterday

Maximum temperature yesterday: 59 °F (at 3:35 pm)
Minimum temperature yesterday: 32 °F (at 7:55 am)
Average temperature yesterday: 46 °F

High & Low Weather Summary for the Past Weeks

 TemperatureHumidityPressure
High63 °F (Mar 13, 3:35 pm)99% (Mar 8, 9:35 pm)30.47 "Hg (Mar 8, 9:35 pm)
Low20 °F (Mar 8, 6:55 am)26% (Mar 21, 5:15 pm)28.91 "Hg (Mar 13, 10:55 pm)
Average39 °F77%30.06 "Hg
* Reported Mar 6 4:10 pm — Mar 21 5:55 pm, Township of Washington. Weather by CustomWeather, © 2019

Note: Actual official high and low records may vary slightly from our data, if they occured in-between our weather recording intervals... More about our weather records

Advertising

Township of Washington Weather History for the Previous 24 Hours

Scroll right to see more
 ConditionsComfort  
Time TempWeatherWind HumidityBarometerVisibility
5:55 pm
Thu, Mar 21
60 °FSunny.No wind27%30.15 "Hg10 mi
5:35 pm61 °FSunny.5 mph27%30.16 "Hg10 mi
5:15 pm61 °FSunny.5 mph26%30.16 "Hg10 mi
4:35 pm60 °FSunny.3 mph30%30.17 "Hg10 mi
4:15 pm59 °FSunny.5 mph29%30.17 "Hg10 mi
3:55 pm59 °FSunny.3 mph32%30.17 "Hg10 mi
3:35 pm58 °FSunny.No wind33%30.17 "Hg10 mi
3:15 pm57 °FSunny.6 mph35%30.18 "Hg10 mi
2:55 pm57 °FSunny.No wind35%30.19 "Hg10 mi
2:35 pm56 °FSunny.3 mph35%30.20 "Hg10 mi
2:15 pm55 °FSunny.5 mph41%30.21 "Hg10 mi
1:55 pm54 °FSunny.6 mph42%30.22 "Hg10 mi
1:35 pm53 °FSunny.7 mph46%30.23 "Hg10 mi
1:15 pm52 °FSunny.5 mph48%30.24 "Hg10 mi
12:55 pm50 °FSunny.No wind55%30.24 "Hg10 mi
12:35 pm49 °FSunny.3 mph56%30.25 "Hg10 mi
11:55 am46 °FSunny.3 mph62%30.26 "Hg10 mi
11:15 am43 °FSunny.5 mph70%30.26 "Hg10 mi
10:55 am42 °FSunny.3 mph74%30.26 "Hg10 mi
10:35 am40 °FSunny.5 mph77%30.26 "Hg10 mi
9:55 am38 °FSunny.3 mph83%30.27 "Hg10 mi
9:35 am36 °FSunny.3 mph89%30.27 "Hg10 mi
9:15 am35 °FSunny.5 mph91%30.27 "Hg10 mi
8:55 am33 °FSunny.5 mph95%30.26 "Hg10 mi
8:35 am32 °FSunny.5 mph95%30.26 "Hg10 mi
8:10 am32 °FSunny.3 mph95%30.26 "Hg10 mi
7:55 am31 °FSunny.No wind95%30.25 "Hg10 mi
7:35 am31 °FSunny.3 mph96%30.25 "Hg7 mi
6:55 am31 °FClear.3 mph96%30.25 "Hg10 mi
6:35 am31 °FClear.No wind96%30.24 "Hg10 mi
6:15 am31 °FClear.3 mph96%30.23 "Hg10 mi
5:55 am31 °FClear.3 mph96%30.24 "Hg10 mi
5:35 am31 °FClear.3 mph95%30.23 "Hg10 mi
5:15 am32 °FClear.No wind95%30.23 "Hg10 mi
4:55 am32 °FClear.5 mph96%30.22 "Hg10 mi
4:35 am32 °FClear.No wind94%30.22 "Hg10 mi
4:10 am34 °FClear.3 mph92%30.22 "Hg10 mi
3:55 am34 °FClear.6 mph92%30.22 "Hg10 mi
3:35 am33 °FClear.3 mph94%30.22 "Hg10 mi
3:15 am34 °FClear.3 mph92%30.23 "Hg10 mi
2:55 am35 °FClear.6 mph89%30.23 "Hg10 mi
2:35 am35 °FClear.5 mph89%30.23 "Hg10 mi
2:15 am35 °FClear.5 mph89%30.22 "Hg10 mi
1:55 am35 °FClear.5 mph90%30.22 "Hg10 mi
1:35 am36 °FClear.5 mph89%30.21 "Hg10 mi
1:15 am36 °FClear.5 mph89%30.21 "Hg10 mi
12:55 am37 °FClear.6 mph90%30.21 "Hg10 mi
12:35 am37 °FClear.5 mph89%30.21 "Hg10 mi
12:15 am40 °FClear.5 mph83%30.20 "Hg10 mi
11:55 pm
Wed, Mar 20
40 °FClear.3 mph83%30.20 "Hg10 mi
11:35 pm41 °FClear.5 mph82%30.19 "Hg10 mi
11:15 pm41 °FClear.5 mph84%30.18 "Hg10 mi
10:55 pm43 °FClear.3 mph80%30.18 "Hg10 mi
10:35 pm44 °FClear.5 mph78%30.17 "Hg10 mi
10:15 pm45 °FClear.6 mph77%30.17 "Hg10 mi
9:55 pm46 °FClear.6 mph75%30.17 "Hg10 mi
9:35 pm47 °FClear.7 mph75%30.15 "Hg10 mi
9:15 pm49 °FClear.8 mph70%30.14 "Hg10 mi
8:55 pm49 °FClear.9 mph69%30.13 "Hg10 mi
8:35 pm51 °FClear.9 mph66%30.13 "Hg10 mi
7:55 pm53 °FClear.8 mph61%30.11 "Hg10 mi
7:15 pm56 °FSunny.12 mph53%30.09 "Hg10 mi
Weather by CustomWeather, © 2019

See weather overview